TimeEDT,TemperatureF,Dew PointF,Humidity,Sea Level PressureIn,VisibilityMPH,Wind Direction,Wind SpeedMPH,Gust SpeedMPH,PrecipitationIn,Events,Conditions,WindDirDegrees,DateUTC
12:54 AM,69.1,66.9,93,29.96,9.0,Calm,Calm,-,N/A,,Clear,0,2013-08-30 04:54:00
1:54 AM,70.0,66.9,90,29.94,10.0,SW,3.5,-,N/A,,Clear,220,2013-08-30 05:54:00
2:54 AM,71.1,66.0,84,29.94,10.0,WSW,3.5,-,N/A,,Clear,240,2013-08-30 06:54:00
3:54 AM,72.0,64.9,78,29.93,10.0,SSW,4.6,-,N/A,,Clear,210,2013-08-30 07:54:00
4:54 AM,73.0,64.9,76,29.88,10.0,Calm,Calm,-,N/A,,Clear,0,2013-08-30 08:54:00
5:54 AM,69.1,66.0,90,29.88,10.0,South,3.5,-,0.00,,Overcast,180,2013-08-30 09:54:00
6:54 AM,73.0,64.9,76,29.87,10.0,SW,4.6,-,0.00,Rain,Light Rain,220,2013-08-30 10:54:00
7:54 AM,73.0,66.0,79,29.83,10.0,South,8.1,-,0.00,,Clear,170,2013-08-30 11:54:00
8:54 AM,73.0,66.0,79,29.83,10.0,SSW,5.8,-,0.00,,Scattered Clouds,200,2013-08-30 12:54:00
9:54 AM,77.0,66.9,71,29.82,10.0,SSW,8.1,-,N/A,,Clear,210,2013-08-30 13:54:00
10:47 AM,77.0,66.2,69,29.83,10.0,WNW,3.5,-,N/A,Thunderstorm,Thunderstorm,290,2013-08-30 14:47:00
10:54 AM,75.9,66.0,71,29.84,10.0,WNW,3.5,-,0.00,Rain-Thunderstorm,Light Thunderstorms and Rain,300,2013-08-30 14:54:00
11:09 AM,73.4,66.2,78,29.85,9.0,NW,5.8,-,0.00,Rain,Light Rain,310,2013-08-30 15:09:00
11:21 AM,73.4,68.0,83,29.84,3.0,Calm,Calm,-,0.03,Rain-Thunderstorm,Thunderstorms and Rain,0,2013-08-30 15:21:00
11:46 AM,71.6,68.0,88,29.80,2.0,South,10.4,-,0.11,Rain-Thunderstorm,Heavy Thunderstorms and Rain,190,2013-08-30 15:46:00
11:54 AM,71.1,68.0,90,29.81,5.0,SW,8.1,-,0.12,Rain-Thunderstorm,Light Thunderstorms and Rain,220,2013-08-30 15:54:00
12:17 PM,69.8,66.2,88,29.80,1.5,SSW,5.8,-,0.04,Rain-Thunderstorm,Light Thunderstorms and Rain,210,2013-08-30 16:17:00
12:42 PM,69.8,68.0,94,29.79,4.0,SSW,4.6,-,0.21,Rain-Thunderstorm,Thunderstorms and Rain,200,2013-08-30 16:42:00
12:52 PM,69.8,68.0,94,29.79,8.0,South,9.2,-,0.22,,Overcast,190,2013-08-30 16:52:00
12:54 PM,70.0,68.0,93,29.78,8.0,South,9.2,-,0.22,,Overcast,190,2013-08-30 16:54:00
1:36 PM,69.8,68.0,94,29.77,1.8,SW,4.6,-,0.03,Rain,Heavy Rain,220,2013-08-30 17:36:00
1:54 PM,70.0,68.0,93,29.77,1.2,SW,6.9,-,0.15,Rain,Heavy Rain,220,2013-08-30 17:54:00
2:03 PM,69.8,68.0,94,29.76,3.0,SW,5.8,-,0.04,Rain-Thunderstorm,Thunderstorms and Rain,230,2013-08-30 18:03:00
2:22 PM,69.8,69.8,100,29.76,6.0,SW,4.6,-,0.04,,Overcast,220,2013-08-30 18:22:00
2:54 PM,71.1,69.1,93,29.76,7.0,SW,6.9,-,0.04,,Overcast,220,2013-08-30 18:54:00
3:39 PM,71.6,69.8,94,29.75,4.0,Variable,4.6,-,N/A,,Overcast,0,2013-08-30 19:39:00
3:54 PM,72.0,70.0,93,29.74,5.0,Variable,4.6,-,N/A,,Overcast,0,2013-08-30 19:54:00
4:09 PM,71.6,69.8,94,29.75,7.0,West,4.6,-,N/A,,Overcast,270,2013-08-30 20:09:00
4:42 PM,73.4,71.6,94,29.74,7.0,WNW,4.6,-,N/A,,Mostly Cloudy,290,2013-08-30 20:42:00
4:49 PM,75.2,71.6,89,29.74,8.0,Variable,4.6,-,N/A,,Mostly Cloudy,0,2013-08-30 20:49:00
4:54 PM,73.9,70.0,87,29.73,8.0,WNW,4.6,-,N/A,,Mostly Cloudy,290,2013-08-30 20:54:00
5:07 PM,75.2,71.6,89,29.74,9.0,Variable,4.6,-,N/A,,Mostly Cloudy,0,2013-08-30 21:07:00
5:54 PM,73.9,70.0,87,29.74,10.0,WNW,5.8,-,N/A,,Overcast,290,2013-08-30 21:54:00
6:14 PM,73.4,69.8,88,29.76,6.0,NNW,9.2,-,0.00,Rain,Light Rain,340,2013-08-30 22:14:00
6:21 PM,73.4,69.8,88,29.76,10.0,NNW,8.1,-,0.00,Rain,Light Rain,330,2013-08-30 22:21:00
6:54 PM,73.0,69.1,87,29.76,10.0,NW,6.9,-,0.00,,Overcast,320,2013-08-30 22:54:00
7:24 PM,71.6,69.8,94,29.78,10.0,NNW,9.2,-,N/A,,Overcast,340,2013-08-30 23:24:00
7:54 PM,71.1,68.0,90,29.78,10.0,NW,8.1,-,N/A,,Overcast,320,2013-08-30 23:54:00
8:01 PM,71.6,68.0,88,29.79,10.0,NNW,8.1,-,N/A,,Overcast,330,2013-08-31 00:01:00
8:33 PM,69.8,68.0,94,29.79,10.0,NNW,9.2,-,N/A,,Mostly Cloudy,340,2013-08-31 00:33:00
8:54 PM,69.1,66.0,90,29.79,10.0,North,10.4,-,N/A,,Mostly Cloudy,350,2013-08-31 00:54:00
9:18 PM,69.8,66.2,88,29.80,10.0,North,10.4,-,N/A,,Overcast,350,2013-08-31 01:18:00
9:51 PM,69.8,66.2,88,29.81,10.0,North,12.7,-,N/A,,Overcast,360,2013-08-31 01:51:00
9:54 PM,69.1,66.0,90,29.80,10.0,North,12.7,-,N/A,,Overcast,350,2013-08-31 01:54:00
10:12 PM,69.8,66.2,88,29.81,10.0,North,11.5,-,N/A,,Overcast,350,2013-08-31 02:12:00
10:54 PM,68.0,66.0,93,29.83,10.0,North,6.9,-,N/A,,Overcast,350,2013-08-31 02:54:00
11:54 PM,68.0,64.9,90,29.83,10.0,NNE,11.5,-,N/A,,Mostly Cloudy,20,2013-08-31 03:54:00